Radiation Dose at Monitoring Post of Fukushima Daini Nuclear Power Station
Date,Time,MP-1(microSv/h),MP-2(microSv/h),MP-3(microSv/h),MP-4(microSv/h),MP-5(microSv/h),MP-6(microSv/h),MP-7(microSv/h),Wind Direction,Wind Velocity(m/s),Rain
2017/08/23,00:00,0.345,0.211,0.343,0.325,0.317,0.170,0.104,south-southwest,3.1,No
2017/08/23,00:10,0.341,0.212,0.343,0.323,0.314,0.170,0.105,south-southwest,2.8,No
2017/08/23,00:20,0.342,0.212,0.347,0.323,0.315,0.171,0.104,south-southwest,3.0,No
2017/08/23,00:30,0.345,0.210,0.348,0.327,0.318,0.170,0.104,south-southwest,4.8,No
2017/08/23,00:40,0.343,0.212,0.344,0.324,0.316,0.169,0.104,south-southwest,4.5,No
2017/08/23,00:50,0.341,0.213,0.343,0.322,0.313,0.171,0.105,south-southwest,3.4,No
2017/08/23,01:00,0.346,0.212,0.347,0.325,0.318,0.171,0.105,south,2.2,Yes
2017/08/23,01:10,0.346,0.211,0.345,0.326,0.319,0.169,0.104,south-southwest,4.1,Yes
2017/08/23,01:20,0.343,0.214,0.343,0.323,0.315,0.171,0.105,south,4.2,Yes
2017/08/23,01:30,0.344,0.213,0.348,0.322,0.316,0.172,0.105,south-southwest,3.6,Yes
2017/08/23,01:40,0.345,0.211,0.347,0.328,0.319,0.172,0.105,south-southwest,5.3,No
2017/08/23,01:50,0.343,0.214,0.344,0.326,0.315,0.169,0.105,south-southwest,5.8,No
2017/08/23,02:00,0.341,0.213,0.344,0.322,0.314,0.171,0.105,south-southwest,5.2,No
2017/08/23,02:10,0.345,0.212,0.346,0.326,0.319,0.172,0.104,south,5.7,No
2017/08/23,02:20,0.346,0.212,0.345,0.326,0.319,0.171,0.105,south-southwest,5.6,No
2017/08/23,02:30,0.341,0.214,0.344,0.324,0.315,0.170,0.105,south-southwest,5.4,No
2017/08/23,02:40,0.342,0.212,0.349,0.321,0.316,0.171,0.104,southwest,5.3,No
2017/08/23,02:50,0.345,0.211,0.345,0.326,0.317,0.171,0.104,southwest,5.1,No
2017/08/23,03:00,0.344,0.214,0.342,0.325,0.313,0.169,0.105,southwest,5.3,Yes
2017/08/23,03:10,0.339,0.212,0.348,0.322,0.313,0.171,0.104,southwest,4.8,No
2017/08/23,03:20,0.345,0.211,0.346,0.324,0.319,0.171,0.104,southwest,4.7,No
2017/08/23,03:30,0.345,0.212,0.344,0.326,0.318,0.170,0.105,southwest,5.5,No
2017/08/23,03:40,0.341,0.212,0.343,0.323,0.315,0.170,0.104,west-southwest,4.8,No
2017/08/23,03:50,0.342,0.210,0.346,0.322,0.315,0.172,0.104,west-southwest,3.6,No
2017/08/23,04:00,0.345,0.211,0.345,0.326,0.318,0.170,0.104,west-southwest,2.2,No
2017/08/23,04:10,0.343,0.211,0.343,0.323,0.315,0.169,0.104,west-southwest,3.8,No
2017/08/23,04:20,0.341,0.211,0.349,0.322,0.314,0.171,0.104,west-southwest,2.7,No
2017/08/23,04:30,0.345,0.212,0.347,0.326,0.316,0.171,0.104,west-southwest,2.2,No
2017/08/23,04:40,0.344,0.212,0.343,0.325,0.318,0.170,0.105,west,1.9,No
2017/08/23,04:50,0.341,0.211,0.345,0.323,0.316,0.172,0.104,west,2.0,No
2017/08/23,05:00,0.343,0.211,0.347,0.323,0.312,0.171,0.102,west,1.6,Yes
2017/08/23,05:10,0.345,0.212,0.344,0.327,0.318,0.171,0.105,west-southwest,1.3,No
2017/08/23,05:20,0.341,0.212,0.344,0.326,0.316,0.170,0.105,west-southwest,1.6,Yes
2017/08/23,05:30,0.341,0.211,0.350,0.323,0.314,0.171,0.105,southwest,1.9,Yes
2017/08/23,05:40,0.348,0.215,0.346,0.327,0.316,0.171,0.105,southwest,1.9,Yes
2017/08/23,05:50,0.345,0.214,0.343,0.325,0.320,0.171,0.105,south-southwest,2.9,Yes
2017/08/23,06:00,0.343,0.212,0.348,0.323,0.316,0.172,0.105,southwest,2.5,Yes
2017/08/23,06:10,0.348,0.214,0.348,0.324,0.315,0.172,0.105,west,1.8,No
2017/08/23,06:20,0.346,0.213,0.344,0.326,0.316,0.171,0.105,west-southwest,2.5,No
2017/08/23,06:30,0.341,0.212,0.347,0.324,0.318,0.169,0.105,west-southwest,2.7,No
2017/08/23,06:40,0.343,0.213,0.347,0.321,0.315,0.170,0.104,west,3.4,No
2017/08/23,06:50,0.345,0.213,0.345,0.325,0.314,0.170,0.105,west,2.5,No
2017/08/23,07:00,0.342,0.210,0.343,0.324,0.314,0.169,0.105,northwest,1.9,No
2017/08/23,07:10,0.340,0.210,0.348,0.321,0.317,0.171,0.104,north-northwest,1.3,No
2017/08/23,07:20,0.343,0.211,0.346,0.321,0.315,0.171,0.103,-,CALM,No
2017/08/23,07:30,0.345,0.212,0.343,0.326,0.314,0.170,0.104,north-northeast,0.7,No
2017/08/23,07:40,0.341,0.211,0.344,0.325,0.313,0.170,0.104,southwest,1.4,No
2017/08/23,07:50,0.341,0.210,0.347,0.323,0.312,0.169,0.104,west-southwest,3.0,No
2017/08/23,08:00,0.341,0.210,0.345,0.323,0.312,0.171,0.103,west-southwest,3.3,No
2017/08/23,08:10,0.339,0.209,0.342,0.322,0.312,0.171,0.104,west-southwest,2.3,No
2017/08/23,08:20,0.340,0.210,0.342,0.323,0.314,0.171,0.103,west,1.6,No
2017/08/23,08:30,0.340,0.209,0.341,0.322,0.315,0.170,0.103,west,0.5,No
2017/08/23,08:40,0.341,0.209,0.345,0.321,0.316,0.169,0.103,northwest,0.5,No
2017/08/23,08:50,0.345,0.211,0.345,0.322,0.314,0.170,0.103,-,CALM,No
2017/08/23,09:00,0.346,0.209,0.346,0.322,0.316,0.170,0.103,west-northwest,2.0,No
2017/08/23,09:10,0.346,0.210,0.345,0.323,0.316,0.171,0.103,west,3.1,No
2017/08/23,09:20,0.344,0.212,0.343,0.324,0.317,0.170,0.104,west,5.0,No
2017/08/23,09:30,0.344,0.212,0.341,0.325,0.317,0.171,0.103,west-northwest,4.2,No
2017/08/23,09:40,0.342,0.213,0.343,0.324,0.317,0.171,0.104,northwest,4.2,No
2017/08/23,09:50,0.345,0.212,0.343,0.326,0.318,0.171,0.104,northwest,3.0,No
2017/08/23,10:00,0.343,0.213,0.344,0.326,0.318,0.171,0.104,west,4.3,No
2017/08/23,10:10,0.345,0.215,0.344,0.325,0.317,0.171,0.104,-,-,No
2017/08/23,10:20,0.345,0.215,0.345,0.327,0.318,0.171,0.104,-,-,No
2017/08/23,10:30,0.343,0.214,0.344,0.328,0.316,0.171,0.103,-,-,No
2017/08/23,10:40,0.344,0.212,0.344,0.326,0.318,0.171,0.104,-,-,No
2017/08/23,10:50,0.343,0.214,0.345,0.324,0.317,0.171,0.103,-,-,No
2017/08/23,11:00,0.344,0.213,0.345,0.325,0.315,0.170,0.104,-,-,No
2017/08/23,11:10,0.343,0.212,0.346,0.322,0.316,0.171,0.104,-,-,No
2017/08/23,11:20,0.344,0.212,0.345,0.324,0.317,0.171,0.104,-,-,Yes
2017/08/23,11:30,0.345,0.212,0.347,0.325,0.319,0.173,0.104,-,-,Yes
2017/08/23,11:40,0.344,0.212,0.345,0.326,0.317,0.173,0.103,-,-,No
2017/08/23,11:50,0.345,0.213,0.347,0.325,0.318,0.173,0.103,-,-,No
2017/08/23,12:00,0.343,0.213,0.346,0.326,0.318,0.172,0.104,-,-,No
2017/08/23,12:10,0.344,0.214,0.346,0.325,0.319,0.173,0.104,-,-,No
2017/08/23,12:20,0.346,0.215,0.347,0.328,0.318,0.173,0.105,-,-,No
2017/08/23,12:30,0.347,0.215,0.349,0.328,0.319,0.174,0.104,-,-,No
2017/08/23,12:40,0.346,0.214,0.349,0.328,0.321,0.174,0.104,-,-,No
2017/08/23,12:50,0.346,0.215,0.348,0.328,0.318,0.173,0.104,-,-,No
2017/08/23,13:00,0.346,0.215,0.349,0.329,0.319,0.173,0.105,-,-,No
2017/08/23,13:10,0.348,0.214,0.349,0.330,0.318,0.173,0.104,-,-,No
2017/08/23,13:20,0.346,0.216,0.348,0.329,0.318,0.173,0.104,-,-,No
2017/08/23,13:30,0.345,0.214,0.347,0.327,0.317,0.172,0.102,-,-,No
2017/08/23,13:40,0.345,0.212,0.346,0.327,0.316,0.171,0.103,-,-,No
2017/08/23,13:50,0.346,0.212,0.345,0.325,0.315,0.171,0.102,-,-,No
2017/08/23,14:00,0.346,0.212,0.345,0.324,0.316,0.170,0.101,-,-,No
2017/08/23,14:10,0.345,0.213,0.346,0.324,0.316,0.170,0.102,-,-,No
2017/08/23,14:20,0.344,0.213,0.347,0.323,0.317,0.171,0.103,-,-,No
2017/08/23,14:30,0.347,0.211,0.347,0.325,0.316,0.172,0.103,-,-,No
2017/08/23,14:40,0.345,0.211,0.346,0.325,0.317,0.171,0.103,-,-,No
2017/08/23,14:50,0.345,0.213,0.346,0.326,0.318,0.172,0.103,-,-,No
2017/08/23,15:00,0.346,0.213,0.346,0.325,0.317,0.172,0.103,-,-,No
2017/08/23,15:10,0.347,0.213,0.347,0.325,0.317,0.172,0.103,-,-,No
2017/08/23,15:20,0.346,0.214,0.345,0.325,0.317,0.172,0.104,-,-,No
2017/08/23,15:30,0.346,0.214,0.345,0.325,0.316,0.171,0.103,-,-,No
2017/08/23,15:40,0.344,0.212,0.347,0.325,0.316,0.172,0.103,-,-,No
2017/08/23,15:50,0.344,0.213,0.345,0.325,0.317,0.170,0.103,northwest,2.7,No
2017/08/23,16:00,0.343,0.212,0.346,0.325,0.318,0.172,0.104,north-northwest,1.7,No
2017/08/23,16:10,0.344,0.213,0.346,0.324,0.318,0.171,0.104,west,1.1,No
2017/08/23,16:20,0.345,0.211,0.347,0.324,0.319,0.172,0.103,west,1.3,No
2017/08/23,16:30,0.345,0.213,0.345,0.326,0.316,0.171,0.104,west-northwest,0.8,No
2017/08/23,16:40,0.344,0.212,0.346,0.324,0.317,0.172,0.104,-,CALM,No
2017/08/23,16:50,0.344,0.212,0.346,0.324,0.317,0.171,0.104,-,CALM,No
2017/08/23,17:00,0.344,0.212,0.345,0.324,0.318,0.171,0.104,northwest,3.2,No
2017/08/23,17:10,0.344,0.212,0.345,0.323,0.318,0.171,0.104,northwest,1.9,No
2017/08/23,17:20,0.343,0.211,0.345,0.325,0.318,0.172,0.104,north-northwest,2.3,No
2017/08/23,17:30,0.346,0.212,0.346,0.324,0.319,0.172,0.105,northwest,1.7,No
2017/08/23,17:40,0.351,0.212,0.351,0.329,0.317,0.172,0.104,north-northwest,2.1,No
2017/08/23,17:50,0.349,0.211,0.351,0.330,0.319,0.171,0.104,north-northwest,2.9,No
2017/08/23,18:00,0.346,0.212,0.349,0.328,0.316,0.172,0.104,north-northwest,3.5,No
2017/08/23,18:10,0.345,0.214,0.347,0.326,0.316,0.172,0.104,northwest,4.0,No
2017/08/23,18:20,0.343,0.214,0.347,0.326,0.316,0.172,0.105,north-northwest,3.3,No
2017/08/23,18:30,0.346,0.213,0.346,0.324,0.316,0.172,0.105,northwest,2.6,No
2017/08/23,18:40,0.349,0.212,0.351,0.328,0.314,0.172,0.104,northwest,3.2,No
2017/08/23,18:50,0.347,0.213,0.352,0.328,0.320,0.173,0.104,west-northwest,3.0,No
2017/08/23,19:00,0.345,0.216,0.348,0.327,0.320,0.172,0.104,north-northwest,3.1,No
2017/08/23,19:10,0.343,0.214,0.345,0.326,0.319,0.171,0.105,northwest,2.2,No
2017/08/23,19:20,0.349,0.213,0.347,0.327,0.316,0.172,0.104,northwest,1.6,No
2017/08/23,19:30,0.348,0.214,0.351,0.330,0.316,0.173,0.104,west-southwest,0.8,No
2017/08/23,19:40,0.346,0.214,0.349,0.328,0.321,0.171,0.104,west-northwest,2.2,No
2017/08/23,19:50,0.344,0.213,0.347,0.325,0.320,0.171,0.105,west-northwest,3.7,No
2017/08/23,20:00,0.349,0.211,0.346,0.326,0.317,0.173,0.105,west-northwest,6.2,No
2017/08/23,20:10,0.348,0.215,0.351,0.330,0.315,0.172,0.105,west-northwest,3.3,No
2017/08/23,20:20,0.346,0.214,0.350,0.329,0.315,0.171,0.104,north-northwest,0.6,No
2017/08/23,20:30,0.343,0.214,0.348,0.326,0.321,0.172,0.104,northwest,1.5,No
2017/08/23,20:40,0.349,0.212,0.345,0.324,0.320,0.171,0.105,north,2.2,No
2017/08/23,20:50,0.348,0.214,0.350,0.331,0.319,0.171,0.104,northwest,1.8,No
2017/08/23,21:00,0.347,0.214,0.351,0.330,0.316,0.171,0.104,west-northwest,2.5,No
2017/08/23,21:10,0.343,0.212,0.347,0.325,0.316,0.173,0.106,west-northwest,2.2,No
2017/08/23,21:20,0.348,0.214,0.346,0.324,0.318,0.171,0.105,northwest,2.9,No
2017/08/23,21:30,0.349,0.215,0.352,0.328,0.319,0.170,0.104,northwest,3.2,No
2017/08/23,21:40,0.347,0.213,0.352,0.328,0.317,0.171,0.104,northwest,2.0,No
2017/08/23,21:50,0.345,0.211,0.349,0.327,0.314,0.173,0.106,west,3.9,No
2017/08/23,22:00,0.349,0.215,0.345,0.324,0.319,0.171,0.105,west,4.8,No
2017/08/23,22:10,0.348,0.214,0.349,0.328,0.321,0.171,0.104,west-northwest,5.1,No
2017/08/23,22:20,0.344,0.213,0.350,0.330,0.319,0.172,0.104,west-northwest,4.7,No
2017/08/23,22:30,0.344,0.212,0.349,0.326,0.317,0.172,0.105,west-northwest,5.0,No
2017/08/23,22:40,0.348,0.214,0.347,0.324,0.316,0.171,0.105,west,4.5,No
2017/08/23,22:50,0.348,0.214,0.349,0.328,0.320,0.173,0.104,northwest,4.6,No
2017/08/23,23:00,0.345,0.213,0.352,0.330,0.319,0.172,0.104,north-northwest,3.9,Yes
2017/08/23,23:10,0.346,0.215,0.349,0.327,0.318,0.171,0.106,north-northwest,2.4,Yes
2017/08/23,23:20,0.348,0.215,0.348,0.325,0.315,0.172,0.105,north-northwest,3.4,Yes
2017/08/23,23:30,0.348,0.214,0.347,0.328,0.319,0.172,0.105,north-northwest,1.6,No
2017/08/23,23:40,0.344,0.213,0.351,0.328,0.320,0.173,0.106,north-northwest,2.9,No
2017/08/23,23:50,0.348,0.214,0.349,0.327,0.319,0.172,0.106,west-northwest,1.9,No
